TimeCST,TemperatureF,Dew PointF,Humidity,Sea Level PressureIn,VisibilityMPH,Wind Direction,Wind SpeedMPH,Gust SpeedMPH,PrecipitationIn,Events,Conditions,WindDirDegrees,DateUTC
12:15 AM,37.4,28.4,70,30.34,10.0,Calm,Calm,-,N/A,,Clear,0,2013-02-03 06:15:00
12:35 AM,39.2,28.4,65,30.34,10.0,NNW,3.5,-,N/A,,Clear,340,2013-02-03 06:35:00
12:55 AM,35.6,26.6,70,30.34,10.0,North,3.5,-,N/A,,Clear,10,2013-02-03 06:55:00
1:15 AM,37.4,28.4,70,30.34,10.0,NNW,3.5,-,N/A,,Clear,340,2013-02-03 07:15:00
1:35 AM,37.4,28.4,70,30.34,10.0,Calm,Calm,-,N/A,,Clear,0,2013-02-03 07:35:00
1:55 AM,35.6,26.6,70,30.34,10.0,North,3.5,-,N/A,,Clear,10,2013-02-03 07:55:00
2:15 AM,35.6,28.4,75,30.33,10.0,North,4.6,-,N/A,,Clear,350,2013-02-03 08:15:00
2:35 AM,37.4,30.2,75,30.33,10.0,NNW,3.5,-,N/A,,Clear,330,2013-02-03 08:35:00
2:55 AM,35.6,26.6,70,30.33,10.0,NNW,3.5,-,N/A,,Clear,330,2013-02-03 08:55:00
3:15 AM,35.6,28.4,75,30.32,10.0,NNW,3.5,-,N/A,,Clear,330,2013-02-03 09:15:00
3:35 AM,35.6,28.4,75,30.32,10.0,North,3.5,-,N/A,,Clear,350,2013-02-03 09:35:00
3:55 AM,32.0,26.6,80,30.32,10.0,Calm,Calm,-,N/A,,Clear,0,2013-02-03 09:55:00
4:15 AM,32.0,26.6,80,30.31,10.0,Calm,Calm,-,N/A,,Clear,0,2013-02-03 10:15:00
4:35 AM,32.0,26.6,80,30.31,10.0,Calm,Calm,-,N/A,,Clear,0,2013-02-03 10:35:00
4:55 AM,32.0,26.6,80,30.31,10.0,South,3.5,-,N/A,,Clear,180,2013-02-03 10:55:00
5:15 AM,32.0,28.4,87,30.31,10.0,Calm,Calm,-,N/A,,Clear,0,2013-02-03 11:15:00
5:35 AM,35.6,30.2,81,30.31,10.0,Calm,Calm,-,N/A,,Clear,0,2013-02-03 11:35:00
5:55 AM,32.0,26.6,80,30.31,10.0,Calm,Calm,-,N/A,,Clear,0,2013-02-03 11:55:00
6:15 AM,28.4,26.6,93,30.32,10.0,Calm,Calm,-,N/A,,Clear,0,2013-02-03 12:15:00
6:35 AM,30.2,26.6,86,30.32,10.0,Calm,Calm,-,N/A,,Clear,0,2013-02-03 12:35:00
6:55 AM,32.0,26.6,80,30.32,10.0,Calm,Calm,-,N/A,,Clear,0,2013-02-03 12:55:00
7:15 AM,32.0,26.6,80,30.32,10.0,Calm,Calm,-,N/A,,Clear,0,2013-02-03 13:15:00
7:35 AM,30.2,24.8,80,30.33,10.0,Calm,Calm,-,N/A,,Clear,0,2013-02-03 13:35:00
7:55 AM,30.2,26.6,86,30.33,10.0,Calm,Calm,-,N/A,,Clear,0,2013-02-03 13:55:00
8:35 AM,33.8,28.4,81,30.34,10.0,Calm,Calm,-,N/A,,Clear,0,2013-02-03 14:35:00
8:55 AM,37.4,32.0,81,30.34,10.0,Calm,Calm,-,N/A,,Clear,0,2013-02-03 14:55:00
9:15 AM,41.0,33.8,76,30.34,10.0,Calm,Calm,-,N/A,,Clear,0,2013-02-03 15:15:00
9:35 AM,46.4,33.8,62,30.34,10.0,South,3.5,-,N/A,,Clear,180,2013-02-03 15:35:00
9:55 AM,50.0,33.8,54,30.34,10.0,South,4.6,-,N/A,,Clear,170,2013-02-03 15:55:00
10:15 AM,53.6,32.0,44,30.34,10.0,SSE,9.2,-,N/A,,Clear,160,2013-02-03 16:15:00
10:35 AM,55.4,32.0,41,30.33,10.0,SSE,11.5,-,N/A,,Clear,150,2013-02-03 16:35:00
10:55 AM,57.2,32.0,38,30.33,10.0,SSE,11.5,-,N/A,,Clear,150,2013-02-03 16:55:00
11:15 AM,59.0,32.0,36,30.31,10.0,SSE,12.7,-,N/A,,Clear,160,2013-02-03 17:15:00
11:35 AM,59.0,28.4,31,30.30,10.0,South,12.7,17.3,N/A,,Clear,170,2013-02-03 17:35:00
11:55 AM,62.6,30.2,30,30.29,10.0,South,13.8,-,N/A,,Clear,180,2013-02-03 17:55:00
12:15 PM,62.6,28.4,27,30.28,10.0,SSE,10.4,17.3,N/A,,Clear,160,2013-02-03 18:15:00
12:35 PM,62.6,26.6,26,30.26,10.0,South,16.1,19.6,N/A,,Clear,170,2013-02-03 18:35:00
12:55 PM,62.6,23.0,22,30.24,10.0,SSE,15.0,19.6,N/A,,Clear,160,2013-02-03 18:55:00
1:15 PM,66.2,23.0,19,30.22,10.0,South,16.1,20.7,N/A,,Clear,170,2013-02-03 19:15:00
1:35 PM,64.4,24.8,22,30.20,10.0,SSE,16.1,20.7,N/A,,Clear,150,2013-02-03 19:35:00
1:55 PM,66.2,24.8,21,30.18,10.0,SE,16.1,21.9,N/A,,Clear,140,2013-02-03 19:55:00
2:15 PM,66.2,24.8,21,30.17,10.0,SE,12.7,19.6,N/A,,Clear,130,2013-02-03 20:15:00
2:35 PM,66.2,24.8,21,30.15,10.0,South,15.0,23.0,N/A,,Partly Cloudy,170,2013-02-03 20:35:00
2:55 PM,66.2,26.6,23,30.14,10.0,SSE,15.0,21.9,N/A,,Partly Cloudy,160,2013-02-03 20:55:00
3:15 PM,66.2,28.4,24,30.12,10.0,South,16.1,21.9,N/A,,Partly Cloudy,170,2013-02-03 21:15:00
3:35 PM,66.2,28.4,24,30.12,10.0,SSE,15.0,19.6,N/A,,Clear,160,2013-02-03 21:35:00
3:55 PM,66.2,30.2,26,30.11,10.0,South,12.7,-,N/A,,Clear,170,2013-02-03 21:55:00
4:15 PM,66.2,32.0,28,30.10,10.0,SSE,10.4,18.4,N/A,,Clear,160,2013-02-03 22:15:00
4:35 PM,66.2,32.0,28,30.10,10.0,South,10.4,18.4,N/A,,Clear,180,2013-02-03 22:35:00
4:55 PM,66.2,32.0,28,30.09,10.0,South,10.4,17.3,N/A,,Clear,170,2013-02-03 22:55:00
5:15 PM,66.2,32.0,28,30.08,10.0,SSE,13.8,-,N/A,,Clear,160,2013-02-03 23:15:00
5:35 PM,64.4,33.8,32,30.07,10.0,SSE,13.8,19.6,N/A,,Clear,160,2013-02-03 23:35:00
5:55 PM,64.4,32.0,30,30.06,10.0,SE,11.5,-,N/A,,Clear,140,2013-02-03 23:55:00
6:15 PM,62.6,32.0,32,30.06,10.0,SE,9.2,-,N/A,,Clear,140,2013-02-04 00:15:00
6:35 PM,62.6,32.0,32,30.05,10.0,SE,10.4,-,N/A,,Clear,130,2013-02-04 00:35:00
6:55 PM,60.8,32.0,34,30.05,10.0,SE,9.2,-,N/A,,Mostly Cloudy,130,2013-02-04 00:55:00
7:15 PM,62.6,32.0,32,30.05,10.0,SE,12.7,-,N/A,,Mostly Cloudy,140,2013-02-04 01:15:00
7:55 PM,60.8,32.0,34,30.03,10.0,SE,10.4,-,N/A,,Mostly Cloudy,140,2013-02-04 01:55:00
8:15 PM,60.8,32.0,34,30.03,10.0,SSE,12.7,-,N/A,,Mostly Cloudy,150,2013-02-04 02:15:00
8:35 PM,60.8,32.0,34,30.02,10.0,SE,17.3,20.7,N/A,,Mostly Cloudy,140,2013-02-04 02:35:00
8:55 PM,60.8,32.0,34,30.02,10.0,SSE,13.8,20.7,N/A,,Mostly Cloudy,150,2013-02-04 02:55:00
9:15 PM,60.8,32.0,34,30.02,10.0,SSE,13.8,19.6,N/A,,Scattered Clouds,150,2013-02-04 03:15:00
9:35 PM,59.0,33.8,39,30.00,10.0,SSE,12.7,17.3,N/A,,Mostly Cloudy,150,2013-02-04 03:35:00
9:55 PM,59.0,35.6,42,30.00,10.0,SSE,10.4,-,N/A,,Scattered Clouds,150,2013-02-04 03:55:00
10:15 PM,59.0,35.6,42,30.00,10.0,SSE,12.7,17.3,N/A,,Scattered Clouds,150,2013-02-04 04:15:00
10:35 PM,59.0,37.4,45,30.00,10.0,SSE,10.4,16.1,N/A,,Scattered Clouds,160,2013-02-04 04:35:00
10:55 PM,59.0,37.4,45,29.99,10.0,SSE,9.2,-,N/A,,Scattered Clouds,160,2013-02-04 04:55:00
11:15 PM,57.2,39.2,51,29.99,10.0,SSE,9.2,-,N/A,,Mostly Cloudy,160,2013-02-04 05:15:00
11:35 PM,59.0,41.0,51,29.98,10.0,SSE,12.7,-,N/A,,Overcast,160,2013-02-04 05:35:00
11:55 PM,59.0,41.0,51,29.97,10.0,South,13.8,18.4,N/A,,Overcast,170,2013-02-04 05:55:00